NOAA 16 DEB, 41374

Orbit data source: Space-Track

NOAA 16 DEB, 41374 is space debris in SSO originally from a launch on Thu, 21 Sep 2000 UTC launched from the Air Force Western Test Range (AFWTR). Debris objects in space refer to the collection of defunct objects orbiting the Earth. Examples of debris include non-operational satellites, rocket bodies, and fragments generated from explosions, collisions, or faulty payload assembly.

Loading next visibility...
Identifier
41374, 2000-055JT
Orbit
SSO
Country
Flag of USUS
Related business
Manufacturer
Unknown
Mission
Spacecraft
Bus & Motor
Unknown
Mass
Unknown
Launch date (UTC)
2000-09-21 (26 years ago)
Launch vehicle
Unknown
Launch site
Air Force Western Test Range (AFWTR)
Object type
Payload
Rocket body
Debris
Shape & HBR
Unknown shape, 0.1 m
Radar Cross Section
Medium (>0.1 m² and <1 m²)

Expand to show TLE details & history
Last TLE update: 23 hours ago

TLE from 23 hours ago
0 NOAA 16 DEB
1 41374U 00055JT  26237.08423123  .00001764  00000-0  84223-3 0  9992
2 41374  98.7124 285.3345 0030194 329.7471  30.1961 14.20230122545249
Epoch: 2026-08-25T02:01Z
TLE epoch observation values (Epoch: 2026-08-25T02:01:17.578Z)
Latitude
-0.00006°
Longitude
-78.34539°
Altitude
808.705 km
Speed
7.459 km/s
True Right ascension
19h 01m 20s
True Declination
0° 00' 00"
Sunlit
Object was in full shadow at epoch
Visualization orbit readout
Latitude
Unknown
Longitude
Unknown
Altitude
Unknown
Speed
Unknown
Apparent Right ascension
Unknown
Apparent Declination
Unknown
Sunlit
N/A
Visualization observer readout
Local Sidereal Time
16:22:17
Azimuth
Unknown
Elevation
Unknown
Doppler factor
Unknown
Orbital elements
Apogee altitude
843.472 km
Perigee altitude
799.994 km
Semi-major axis
7,199.87 km
Eccentricity
0.00302
Inclination
98.7124°
RAAN
285.3345°
Arg. of periapsis
329.7471°
True anomaly
30.37069°
Mean anomaly
30.1961°
Eccentric anomaly
30.28334°
Mean motion
3.55268 °/min
Orbital period
101.33 mins
BSTAR
0.00084223
Loading maneuver chart data...
Computing Atmospheric mass density...
Loading historical data...
Loading historical data...
Loading historical data...
Loading historical data...
Loading historical data...
Loading historical data...
Loading historical data...

Documentation

Showing up to 5 results
|